Location: Caltech
(34.1382°N, 118.1253°W)
Time: 01:48:28
(UTC-07:00)

Tiros 1 despin weight - Visible Passes

Search period start: 24 July 2016 00:00
Search period end: 03 August 2016 00:00
Orbit: 596 x 644 km, 48.2° (Epoch: 23 July)

Date Brightness Start Highest point End Pass type
(mag) Time Alt. Az. Time Alt. Az. Time Alt. Az.
24 Jul ? 03:01:29 28° NNW 03:01:29 28° NNW 03:05:06 10° NE visible
24 Jul ? 04:41:44 10° NW 04:43:57 13° N 04:46:11 10° NNE visible
25 Jul ? 01:40:36 13° NE 01:40:36 13° NE 01:41:07 10° NE visible
25 Jul ? 03:17:41 18° NW 03:18:51 19° NNW 03:22:05 10° NNE visible
25 Jul ? 04:59:45 10° NNW 05:01:50 13° N 05:03:53 10° NNE visible
26 Jul ? 01:56:47 19° NNE 01:56:47 19° NNE 01:58:13 10° NE visible
26 Jul ? 03:34:04 10° NW 03:36:37 15° N 03:39:08 10° NNE visible
26 Jul ? 05:17:10 10° NNW 05:19:40 15° N 05:22:09 10° NE visible
27 Jul ? 02:12:56 20° N 02:12:56 20° N 02:15:12 10° NNE visible
27 Jul ? 03:52:22 10° NNW 03:54:27 13° N 03:56:33 10° NNE visible
28 Jul ? 02:29:05 17° NNW 02:29:17 17° NNW 02:32:12 10° NNE visible
28 Jul ? 04:10:06 10° NNW 04:12:19 13° N 04:14:32 10° NE visible
29 Jul ? 01:08:09 11° NE 01:08:09 11° NE 01:08:19 10° NE visible
29 Jul ? 02:45:13 11° NNW 02:47:05 14° N 02:49:22 10° NNE visible
29 Jul ? 04:27:19 10° NNW 04:30:08 16° NNE 04:32:56 10° NE visible
30 Jul ? 01:24:18 14° NNE 01:24:18 14° NNE 01:25:18 10° NNE visible
30 Jul ? 03:02:51 10° NNW 03:04:57 13° N 03:07:02 10° NNE visible
30 Jul ? 04:44:19 10° NNW 04:47:50 22° NNE 04:51:20 10° ENE visible
31 Jul ? 01:40:29 15° N 01:40:29 15° N 01:42:21 10° NNE visible
31 Jul ? 03:20:19 10° NNW 03:22:48 14° N 03:25:16 10° NE visible
31 Jul ? 05:01:18 10° NW 05:05:24 35° NNE 05:09:28 10° E visible
01 Aug ? 01:56:45 13° NNW 01:57:34 13° N 01:59:43 10° NNE visible
01 Aug ? 03:37:24 10° NNW 03:40:34 19° NNE 03:43:42 10° ENE visible
01 Aug ? 05:18:22 10° NW 05:22:47 67° NE 05:27:11 10° ESE visible
01 Aug ? 21:05:05 10° S 21:08:12 23° SE 21:08:12 23° SE visible
01 Aug ? 22:45:34 10° WSW 22:45:34 10° WSW 22:45:34 10° WSW visible
02 Aug ? 02:13:11 10° NNW 02:15:26 13° N 02:17:40 10° NE visible
02 Aug ? 03:54:22 10° NW 03:58:12 27° NNE 04:01:59 10° E visible
02 Aug ? 05:35:40 10° WNW 05:40:00 59° SW 05:44:21 10° SE visible
02 Aug ? 21:21:20 10° SSW 21:25:46 49° SE 21:28:54 18° ENE visible
02 Aug ? 23:03:25 10° W 23:06:16 27° WNW 23:06:16 27° WNW visible
